Bangkok, Thailand

3:27 AM ICT on December 03, 2016 (GMT +0700)
Bangkok

Weather History for 48456 - May, 2013

Change the Weather History Date:

Sunday, May 5, 2013

  Actual Average Record
Temperature  
Mean Temperature 86 °F -  
Max Temperature 95 °F 91 °F - ()
Min Temperature 77 °F 78 °F - ()
Cooling Degree Days 21    
Growing Degree Days 36 (Base 50)    
Moisture  
Dew Point 75 °F    
Average Humidity 68    
Maximum Humidity 94    
Minimum Humidity 47    
Precipitation  
Precipitation 0.16 in 0.21 in - ()
Sea Level Pressure  
Sea Level Pressure 29.79 in    
Wind  
Wind Speed 6 mph ()    
Max Wind Speed 23 mph    
Max Gust Speed -    
Visibility 6.0 miles    
Events Rain , Thunderstorm    
T = Trace of Precipitation, MM = Missing Value Source: Averaged Metar Reports

Daily Weather History Graph

Daily Weather History Graph

Search for Another Location

Airport or City:

Trip Planner

Search our weather history database for the weather conditions in past years. The results will help you decide how hot, cold, wet, or windy it might be!

Date:

Astronomy

May. 05, 2013 Rise Set
Actual Time 5:54 AM ICT 6:34 PM ICT
Civil Twilight 5:31 AM ICT 6:56 PM ICT
Nautical Twilight 5:05 AM ICT 7:23 PM ICT
Astronomical Twilight 4:39 AM ICT 7:49 PM ICT
Moon 2:21 AM ICT (5/5) 2:42 PM ICT (5/5)
Length of Visible Light 13h 25m
Length of Day
12h 40m
Waning Crescent, 22% of the Moon is Illuminated
May 5
Waning Crescent
May 10
New
May 18
First Quarter
May 25
Full
Jun 1
Last Quarter

Hourly Weather History & Observations

Time (ICT) Temp. Heat Index Dew Point Humidity Pressure Visibility Wind Dir Wind Speed Gust Speed Precip Events Conditions
12:00 AM 87.8 °F 102.5 °F 78.8 °F 75% 29.77 in 6.2 mi SSE 5.8 mph - N/A   Scattered Clouds
12:30 AM 87.8 °F 102.5 °F 78.8 °F 75% 29.77 in 6.2 mi ESE 9.2 mph - N/A   Scattered Clouds
1:00 AM 87 °F - 79 °F 70% 29.80 in 6 mi ESE 6.9 mph - -   Scattered Clouds
1:00 AM 87.8 °F 102.5 °F 78.8 °F 75% 29.77 in 6.2 mi ESE 6.9 mph - N/A   Scattered Clouds
1:30 AM 87.8 °F 102.5 °F 78.8 °F 75% 29.77 in 6.2 mi SSE 6.9 mph - N/A   Scattered Clouds
2:00 AM 86.0 °F 99.3 °F 78.8 °F 79% 29.77 in 6.2 mi SSE 5.8 mph - N/A   Scattered Clouds
2:30 AM 86.0 °F 99.3 °F 78.8 °F 79% 29.77 in 6.2 mi SE 4.6 mph - N/A   Scattered Clouds
3:00 AM 86.0 °F 99.3 °F 78.8 °F 79% 29.74 in 6.2 mi SSE 4.6 mph - N/A   Scattered Clouds
3:30 AM 86.0 °F 99.3 °F 78.8 °F 79% 29.74 in 6.2 mi SSE 6.9 mph - N/A   Scattered Clouds
4:00 AM 84.2 °F 94.1 °F 77.0 °F 79% 29.74 in 6.2 mi SE 3.5 mph - N/A   Scattered Clouds
4:30 AM 84.2 °F 92.3 °F 75.2 °F 74% 29.74 in 6.2 mi ESE 3.5 mph - N/A   Scattered Clouds
5:00 AM 84.2 °F 92.3 °F 75.2 °F 74% 29.74 in 6.2 mi SSE 6.9 mph - N/A   Scattered Clouds
5:30 AM 84.2 °F 92.3 °F 75.2 °F 74% 29.77 in 6.2 mi ESE 4.6 mph - N/A   Scattered Clouds
6:00 AM 84.2 °F 92.3 °F 75.2 °F 74% 29.77 in 6.2 mi SE 4.6 mph - N/A   Scattered Clouds
6:30 AM 84.2 °F 92.3 °F 75.2 °F 74% 29.80 in 6.2 mi ESE 5.8 mph - N/A   Mostly Cloudy
7:00 AM 84 °F - 74 °F 65% 29.84 in 6 mi East 5.8 mph - -   Scattered Clouds
7:00 AM 84.2 °F 90.9 °F 73.4 °F 70% 29.80 in 6.2 mi East 5.8 mph - N/A   Mostly Cloudy
7:30 AM 84.2 °F 90.9 °F 73.4 °F 70% 29.83 in 6.2 mi East 9.2 mph - N/A   Mostly Cloudy
8:00 AM 84.2 °F 90.9 °F 73.4 °F 70% 29.83 in 6.2 mi East 6.9 mph - N/A Rain Light Rain
8:30 AM 78.8 °F - 73.4 °F 83% 29.83 in 4.3 mi NNE 16.1 mph - N/A Rain Light Rain
9:00 AM 77.0 °F - 75.2 °F 94% 29.86 in 3.1 mi North 23.0 mph - N/A Rain Light Rain
9:30 AM 77.0 °F - 75.2 °F 94% 29.92 in 3.1 mi NNE 4.6 mph - N/A Rain , Thunderstorm Light Thunderstorms and Rain
10:00 AM 77.0 °F - 75.2 °F 94% 29.89 in 5.0 mi NNE 4.6 mph - N/A Rain , Thunderstorm Light Thunderstorms and Rain
10:30 AM 77.0 °F - 75.2 °F 94% 29.89 in 5.0 mi NNE 9.2 mph - N/A Rain Light Rain
11:00 AM 78.8 °F - 75.2 °F 89% 29.86 in 6.2 mi NNE 11.5 mph - N/A Rain Light Rain
11:30 AM 78.8 °F - 75.2 °F 89% 29.86 in 6.2 mi NNE 9.2 mph - N/A   Mostly Cloudy
12:00 PM 84.2 °F 90.9 °F 73.4 °F 70% 29.83 in 6.2 mi NNE 8.1 mph - N/A   Mostly Cloudy
12:30 PM 86.0 °F 91.8 °F 71.6 °F 62% 29.83 in 6.2 mi NE 5.8 mph - N/A   Mostly Cloudy
1:00 PM 87 °F - 72 °F 53% 29.83 in 6 mi North 8.1 mph - -   Partly Cloudy
1:00 PM 87.8 °F 93.8 °F 71.6 °F 58% 29.80 in 6.2 mi North 8.1 mph - N/A   Scattered Clouds
1:30 PM 91.4 °F 102.5 °F 75.2 °F 59% 29.77 in 6.2 mi NE 6.9 mph - N/A   Scattered Clouds
2:00 PM 91.4 °F 102.5 °F 75.2 °F 59% 29.77 in 6.2 mi NNE 8.1 mph - N/A   Scattered Clouds
2:30 PM 93.2 °F 100.5 °F 71.6 °F 49% 29.77 in 6.2 mi ENE 6.9 mph - N/A   Scattered Clouds
3:00 PM 95.0 °F 104.5 °F 73.4 °F 49% 29.77 in 6.2 mi NNE 9.2 mph - N/A   Scattered Clouds
3:30 PM 95.0 °F 104.5 °F 73.4 °F 49% 29.74 in 6.2 mi North 10.4 mph - N/A   Scattered Clouds
4:00 PM 96.8 °F 107.3 °F 73.4 °F 47% 29.74 in 6.2 mi NE 4.6 mph - N/A   Scattered Clouds
4:30 PM 95.0 °F 104.5 °F 73.4 °F 49% 29.74 in 6.2 mi NNE 4.6 mph - N/A   Scattered Clouds
5:00 PM 95.0 °F 104.5 °F 73.4 °F 49% 29.71 in 6.2 mi NE 9.2 mph - N/A   Scattered Clouds
5:30 PM 95.0 °F 104.5 °F 73.4 °F 49% 29.71 in 6.2 mi ESE 6.9 mph - N/A   Scattered Clouds
6:00 PM 93.2 °F 102.4 °F 73.4 °F 52% 29.71 in 6.2 mi South 3.5 mph - N/A   Scattered Clouds
6:30 PM - - 73.4 °F N/A% 29.74 in 6.2 mi South 10.4 mph - N/A   Scattered Clouds
7:00 PM 90 °F - 74 °F 51% 29.76 in 6 mi South 5.8 mph - -   Scattered Clouds
7:00 PM 89.6 °F 98.2 °F 73.4 °F 59% 29.74 in 6.2 mi South 5.8 mph - N/A   Scattered Clouds
7:30 PM 89.6 °F 98.2 °F 73.4 °F 59% 29.74 in 6.2 mi South 6.9 mph - N/A   Scattered Clouds
8:00 PM 89.6 °F 98.2 °F 73.4 °F 59% 29.77 in 6.2 mi South 3.5 mph - N/A   Scattered Clouds
8:30 PM 87.8 °F 95.6 °F 73.4 °F 62% 29.80 in 6.2 mi South 5.8 mph - N/A   Scattered Clouds
9:00 PM 87.8 °F 95.6 °F 73.4 °F 62% 29.80 in 6.2 mi South 2.3 mph - N/A   Scattered Clouds
9:30 PM 87.8 °F 95.6 °F 73.4 °F 62% 29.80 in 6.2 mi South 2.3 mph - N/A   Scattered Clouds
10:00 PM 86.0 °F 93.4 °F 73.4 °F 66% 29.83 in 6.2 mi SSE 2.3 mph - N/A   Scattered Clouds
10:30 PM 86.0 °F 93.4 °F 73.4 °F 66% 29.83 in 6.2 mi Calm Calm - N/A   Scattered Clouds
11:00 PM 86.0 °F 93.4 °F 73.4 °F 66% 29.83 in 6.2 mi ESE 2.3 mph - N/A   Scattered Clouds
11:30 PM 86.0 °F 93.4 °F 73.4 °F 66% 29.83 in 6.2 mi East 2.3 mph - N/A   Scattered Clouds